[[{"header":{"parameterUnit":"m.s-1","parameterCategory":2,"la1":30.2991,"la2":30.254,"lo1":-89.0895,"lo2":-89.0444,"dy":0.0017,"dx":0.0017,"nx":28,"ny":28,"refTime":"2023-07-19T21:00:00:Z","depth":"0","parameterNumber":2,"parameterNumberName":"U-component_of_CURRENTS"},"data":[0,0,0,0,0,0,0,0,0,0,0,0,0,0,0,0,0,0,0,0,0,0,0,0,0,0,0,0,0,0,0,0,0,0,0,0,0,0,0,0,0,0,0,0,0,0,0,0,0,0,0,0,0,0,0,0,0,0,0.3916,0.3917,0,0.3963,0.3963,0.3963,0.3939,0.3938,0.3937,0.3936,0.4071,0.4075,0.4079,0,0,0,0,0,0,0,0,0,0,0,0,0,0.377,0.3773,0.3916,0.3917,0.3918,0.3963,0.3963,0.3963,0.3939,0.3938,0.3937,0.3936,0.4069,0.4074,0.408,0,0,0,0,0,0,0,0,0,0,0,0,0,0.3823,0.3774,0.3916,0.3914,0.3915,0.3962,0.3963,0.3963,0.3939,0.3938,0.3937,0.3935,0.4067,0.4074,0.408,0.4147,0,0,0.41,0.4103,0,0,0,0,0,0,0,0,0.382,0.3828,0.3914,0.3915,0.3916,0.3947,0.3961,0.403,0.394,0.3926,0.3936,0.3935,0.4041,0.405,0.4054,0.4153,0.4159,0.4101,0.4105,0.4108,0.411,0,0,0,0,0,0,0,0.3817,0.3826,0.393,0.3915,0.3916,0.3899,0.3905,0.3973,0.3989,0.3927,0.3926,0.3938,0.4041,0.4048,0.4058,0.4161,0.4101,0.4107,0.4111,0.4113,0.4305,0.4306,0,0,0,0,0,0,0.3823,0.3823,0.3929,0.3932,0.3868,0.3903,0.391,0.3935,0.3986,0.3993,0.3939,0.3937,0.4037,0.405,0.4063,0.4154,0.4108,0.4114,0.4118,0.4304,0.4305,0.4307,0,0,0,0,0,0,0.382,0.3833,0.3927,0.388,0.3892,0.3908,0.3936,0.3937,0.3945,0.3995,0.4003,0.3947,0.4037,0.4053,0.4108,0.4159,0.4117,0.4123,0.4303,0.4304,0.4306,0.4332,0,0,0,0,0,0,0.3816,0.3832,0.385,0.3882,0.3895,0.3968,0.3938,0.3939,0.3956,0.3953,0.4005,0.4015,0.4037,0.4098,0.4114,0.4167,0.4128,0.4301,0.4303,0.4306,0.433,0.4335,0.4339,0,0,0,0,0,0.3811,0.3836,0.3851,0.3863,0.3921,0.397,0.3976,0.3978,0.3958,0.3976,0.3988,0.4014,0.4124,0.4104,0.4123,0.4179,0.43,0.4303,0.4305,0.4328,0.4334,0.4338,0,0,0,0,0,0,0.3777,0.3838,0.3854,0.3896,0.394,0.3968,0.3978,0.3986,0.4008,0.4001,0.403,0.4043,0.4121,0.4138,0.4115,0.4237,0.4218,0.4224,0.4228,0.4234,0.4239,0.42,0.4133,0,0,0,0,0,0.3784,0.3819,0.3877,0.3911,0.3931,0.3957,0.3975,0.3988,0.4014,0.402,0.4045,0.4082,0.415,0.4176,0.4234,0.4297,0.4331,0.4344,0.4348,0.4352,0.4332,0.4425,0.4436,0.4315,0.4315,0.4315,0,0,0.3775,0.3817,0.3833,0.3906,0.3929,0.3954,0.3963,0.4,0.4012,0.4039,0.405,0.4113,0.4172,0.4242,0.4278,0.4259,0.441,0.4355,0.4358,0.4335,0.4429,0.444,0.4451,0.4317,0.4317,0.4316,0,0,0.377,0.3819,0.3841,0.388,0.3938,0.396,0.3974,0.4013,0.4022,0.4062,0.4091,0.4159,0.4233,0.4283,0.4321,0.4383,0.4442,0.4422,0.4406,0.4498,0.4508,0.4518,0.4601,0.4617,0.441,0.441,0.441,0,0.3753,0.3798,0.3855,0.3885,0.3898,0.3958,0.397,0.4005,0.405,0.4066,0.4064,0.4192,0.4246,0.4346,0.4361,0.4396,0.4454,0.4384,0.4504,0.4514,0.4523,0.4606,0.4624,0.4411,0.4411,0.4411,0.4411,0,0.377,0.3797,0.3811,0.3863,0.389,0.392,0.3972,0.4,0.4017,0.4055,0.415,0.4224,0.4291,0.4345,0.437,0.4481,0.4506,0.4514,0.449,0.4537,0.4621,0.464,0.4414,0.4413,0.4413,0.4412,0,0,0.3741,0.3806,0.3807,0.3808,0.3878,0.3894,0.3929,0.3982,0.4006,0.4077,0.4115,0.4242,0.4295,0.4339,0.4414,0.4487,0.4619,0.4521,0.4525,0.46,0.4832,0.4724,0.4734,0.4662,0.4665,0.4667,0.4873,0,0.3727,0.3752,0.3791,0.379,0.38,0.3851,0.3875,0.3935,0.3994,0.4054,0.4167,0.425,0.4295,0.4351,0.4436,0.4586,0.4665,0.4562,0.4775,0.478,0.4676,0.4749,0.4545,0.4698,0.4891,0.4894,0.4896,0,0.3734,0.3741,0.3736,0.3745,0.3752,0.3757,0.3796,0.3833,0.3953,0.4007,0.4116,0.4216,0.4363,0.4379,0.4635,0.4576,0.4691,0.4791,0.4802,0.4693,0.4704,0.4678,0.4725,0.4536,0.4924,0.4922,0.492,0,0.3683,0.37,0.368,0.3687,0.3717,0.3707,0.3721,0.3815,0.3851,0.3988,0.4043,0.423,0.4323,0.4509,0.4691,0.4693,0.4949,0.4981,0.4991,0.4986,0.4842,0.4817,0.4718,0.5136,0.5136,0.5135,0.5135,0,0.3663,0.3643,0.3647,0.3635,0.3606,0.3644,0.3648,0.3704,0.38,0.386,0.4015,0.4105,0.4359,0.4528,0.4704,0.4889,0.4965,0.4994,0.5031,0.4845,0.482,0.467,0.4612,0.5143,0.5141,0.514,0.5138,0,0.3621,0.3632,0.3604,0.3596,0.3587,0.3565,0.3579,0.3604,0.37,0.3784,0.3829,0.4039,0.4265,0.4491,0.479,0.4879,0.4935,0.5114,0.4863,0.4864,0.4683,0.4636,0.4516,0.4401,0.5196,0.5194,0.5193,0,0.3609,0.3588,0.3558,0.3535,0.3522,0.3495,0.3493,0.3553,0.3586,0.3744,0.3786,0.4002,0.4152,0.4515,0.4721,0.499,0.4863,0.4914,0.4861,0.463,0.4609,0.448,0.4383,0.4716,0.4711,0.4707,0.4703,0,0.3563,0.3551,0.3526,0.348,0.3449,0.3409,0.3403,0.3409,0.3498,0.3573,0.3687,0.3812,0.4131,0.429,0.4576,0.4732,0.4628,0.4835,0.4674,0.4269,0.4048,0.3966,0.4626,0.4666,0.467,0.4673,0.4675,0.4676,0.353,0.3496,0.3463,0.3406,0.3372,0.3308,0.3254,0.328,0.3299,0.3373,0.3548,0.3677,0.3886,0.4273,0.4347,0.4301,0.4419,0.4262,0.4251,0.4161,0.3926,0.4477,0.4494,0.4496,0.4499,0.4501,0.4502,0,0.3464,0.3425,0.3386,0.3293,0.3212,0.3225,0.3181,0.3125,0.3108,0.3223,0.3314,0.3468,0.3589,0.3728,0.3807,0.3728,0.3626,0.3648,0.341,0.3372,0.3933,0.3779,0.3541,0.3541,0.3541,0.3541,0.3541,0.3542,0.3426,0.335,0.3312,0.3147,0.3084,0.2947,0.2903,0.2863,0.2896,0.2889,0.2935,0.3063,0.3236,0.3313,0.3211,0.3171,0.2954,0.2869,0.2898,0.3257,0.3311,0.3363,0.3199,0.2843,0.2843,0.219,0.2185,0.2181]},{"header":{"parameterUnit":"m.s-1","parameterCategory":2,"la1":30.2991,"la2":30.254,"lo1":-89.0895,"lo2":-89.0444,"dy":0.0017,"dx":0.0017,"nx":28,"ny":28,"refTime":"2023-07-19T21:00:00:Z","depth":"0","parameterNumber":3,"parameterNumberName":"V-component_of_CURRENTS"},"data":[0,0,0,0,0,0,0,0,0,0,0,0,0,0,0,0,0,0,0,0,0,0,0,0,0,0,0,0,0,0,0,0,0,0,0,0,0,0,0,0,0,0,0,0,0,0,0,0,0,0,0,0,0,0,0,0,0,0,0.1376,0.1375,0,0.1272,0.127,0.1269,0.1139,0.1137,0.1135,0.1133,0.1035,0.1034,0.1033,0,0,0,0,0,0,0,0,0,0,0,0,0,0.1329,0.1331,0.1376,0.1375,0.1374,0.1272,0.127,0.1269,0.1139,0.1137,0.1135,0.1133,0.1035,0.1034,0.1033,0,0,0,0,0,0,0,0,0,0,0,0,0,0.1298,0.1332,0.1376,0.1298,0.129,0.1272,0.127,0.1268,0.114,0.1137,0.1134,0.1132,0.1035,0.1034,0.1033,0.1082,0,0,0.1029,0.1028,0,0,0,0,0,0,0,0,0.13,0.13,0.1311,0.1304,0.1295,0.1217,0.1217,0.1207,0.1141,0.1195,0.1133,0.113,0.1099,0.1093,0.1077,0.1078,0.1073,0.1029,0.1028,0.1027,0.1027,0,0,0,0,0,0,0,0.1303,0.1303,0.1333,0.131,0.13,0.1222,0.1216,0.1214,0.1164,0.119,0.1181,0.1173,0.1094,0.1079,0.1074,0.1072,0.1029,0.1028,0.1027,0.1026,0.106,0.1062,0,0,0,0,0,0,0.133,0.1307,0.1337,0.133,0.1292,0.1226,0.1219,0.1244,0.1163,0.1149,0.1176,0.1167,0.1082,0.1075,0.107,0.1131,0.1027,0.1026,0.1025,0.1058,0.106,0.1062,0,0,0,0,0,0,0.133,0.1335,0.1341,0.1314,0.131,0.1231,0.1259,0.1243,0.1233,0.1152,0.1136,0.1183,0.108,0.1072,0.1077,0.1126,0.1026,0.1024,0.1056,0.1059,0.1061,0.1249,0,0,0,0,0,0,0.133,0.1337,0.1371,0.1318,0.1312,0.1349,0.1262,0.1243,0.1233,0.1222,0.1155,0.1141,0.1077,0.108,0.1076,0.1122,0.1024,0.1054,0.1058,0.1061,0.1241,0.1258,0.1272,0,0,0,0,0,0.1329,0.1373,0.1374,0.1377,0.1362,0.1351,0.1342,0.1272,0.1237,0.1251,0.12,0.1143,0.1095,0.1082,0.1076,0.1123,0.1053,0.1057,0.106,0.1234,0.1255,0.1272,0,0,0,0,0,0,0.1363,0.1364,0.1362,0.1406,0.1396,0.133,0.133,0.13,0.1273,0.1258,0.1181,0.1167,0.1183,0.1133,0.1119,0.1137,0.106,0.1063,0.1193,0.1212,0.1228,0.1247,0.1022,0,0,0,0,0,0.1398,0.1436,0.142,0.1459,0.1457,0.1409,0.1399,0.1362,0.1325,0.1308,0.1265,0.1217,0.1197,0.1189,0.1155,0.1189,0.1142,0.1207,0.1223,0.1237,0.1247,0.1216,0.123,0.1074,0.1074,0.1074,0,0,0.1418,0.1428,0.1447,0.147,0.1449,0.1464,0.1395,0.1392,0.1408,0.1308,0.132,0.1279,0.1217,0.1234,0.1237,0.12,0.1263,0.1242,0.1255,0.1257,0.1221,0.1237,0.125,0.1077,0.1077,0.1076,0,0,0.147,0.1495,0.1539,0.154,0.1536,0.1514,0.1529,0.1493,0.1479,0.1499,0.1424,0.1422,0.1389,0.1357,0.1337,0.1428,0.1346,0.1409,0.1513,0.1485,0.1497,0.1508,0.1503,0.1511,0.1419,0.142,0.142,0,0.1497,0.1554,0.1547,0.1581,0.1582,0.155,0.158,0.1579,0.1551,0.1569,0.1521,0.1495,0.1448,0.1478,0.1496,0.1468,0.1435,0.1454,0.1508,0.1517,0.1524,0.1516,0.1523,0.1429,0.1428,0.1427,0.1426,0,0.1562,0.1614,0.1634,0.1677,0.1685,0.1705,0.17,0.1722,0.1709,0.1709,0.174,0.168,0.1661,0.1652,0.1602,0.1644,0.16,0.1533,0.1467,0.1552,0.1537,0.1541,0.1443,0.1439,0.1437,0.1434,0,0,0.1602,0.1672,0.1679,0.1714,0.1733,0.1744,0.1796,0.1839,0.1889,0.1877,0.1929,0.1908,0.1882,0.1856,0.1799,0.178,0.182,0.169,0.1684,0.17,0.1773,0.1682,0.1676,0.1756,0.1757,0.1758,0.1754,0,0.1655,0.1746,0.1757,0.1831,0.1872,0.1864,0.1918,0.1955,0.1982,0.2032,0.2008,0.2032,0.196,0.1955,0.1934,0.1839,0.1832,0.1828,0.1674,0.167,0.159,0.1678,0.16,0.1583,0.1757,0.1757,0.1758,0,0.1705,0.1765,0.1848,0.1924,0.1938,0.1973,0.2047,0.2092,0.2165,0.2189,0.2221,0.2195,0.2201,0.21,0.2023,0.2019,0.192,0.1841,0.1837,0.1684,0.1585,0.1516,0.1582,0.1298,0.1763,0.1762,0.1762,0,0.1722,0.1822,0.1893,0.1912,0.1993,0.2027,0.2066,0.2145,0.2204,0.2289,0.2341,0.234,0.2325,0.2223,0.2086,0.2049,0.1976,0.1896,0.1733,0.1726,0.1594,0.1573,0.1374,0.1837,0.1837,0.1837,0.1837,0,0.1755,0.1806,0.1912,0.194,0.203,0.2066,0.2163,0.2215,0.2306,0.2398,0.2419,0.2468,0.2346,0.2293,0.2149,0.1973,0.2029,0.1775,0.1721,0.166,0.1645,0.1334,0.1256,0.1837,0.1837,0.1837,0.1837,0,0.1731,0.1803,0.1893,0.2002,0.2036,0.2092,0.2199,0.2281,0.2372,0.2483,0.2512,0.2561,0.2494,0.2376,0.2208,0.2045,0.1749,0.1804,0.1757,0.1696,0.1241,0.118,0.1015,0.0941,0.1623,0.162,0.1619,0,0.1725,0.1774,0.1919,0.1979,0.202,0.2116,0.2188,0.2293,0.2385,0.2534,0.2587,0.2587,0.2591,0.236,0.208,0.1847,0.1671,0.1599,0.1499,0.1222,0.1115,0.1083,0.1032,0.142,0.1417,0.1414,0.1412,0,0.1709,0.1766,0.1841,0.1972,0.2059,0.216,0.227,0.2344,0.2478,0.2583,0.2676,0.2693,0.2502,0.2234,0.1932,0.1742,0.1415,0.153,0.1249,0.0955,0.0904,0.0804,0.1435,0.1387,0.139,0.1392,0.1393,0.1394,0.1699,0.1744,0.1861,0.1967,0.2076,0.2184,0.2242,0.2367,0.2489,0.2629,0.2678,0.272,0.2355,0.1921,0.1653,0.1048,0.1188,0.085,0.0812,0.0812,0.0692,0.1279,0.1152,0.1153,0.1154,0.1155,0.1155,0,0.1693,0.1745,0.1849,0.198,0.2071,0.2141,0.2286,0.2344,0.2453,0.2597,0.2669,0.2472,0.2,0.1536,0.0769,0.0382,0.0303,0.0196,0.0108,0.0102,0.0596,0.0527,0.025,0.025,0.025,0.025,0.0251,0.0251,0.1697,0.1759,0.181,0.1943,0.2027,0.2117,0.2181,0.2282,0.2395,0.247,0.2475,0.2489,0.207,0.0779,-0.0136,-0.0298,-0.051,-0.0515,-0.058,-0.032,-0.0264,-0.021,-0.0303,-0.0749,-0.075,-0.1083,-0.1087,-0.109]}],[{"header":{"parameterUnit":"m.s-1","parameterCategory":2,"la1":30.2991,"la2":30.254,"lo1":-89.0895,"lo2":-89.0444,"dy":0.0017,"dx":0.0017,"nx":28,"ny":28,"refTime":"2023-07-19T21:00:00:Z","depth":"2","parameterNumber":2,"parameterNumberName":"U-component_of_CURRENTS"},"data":[0,0,0,0,0,0,0,0,0,0,0,0,0,0,0,0,0,0,0,0,0,0,0,0,0,0,0,0,0,0,0,0,0,0,0,0,0,0,0,0,0,0,0,0,0,0,0,0,0,0,0,0,0,0,0,0,0,0,0.2891,0.2892,0,0.3101,0.3105,0.3108,0.322,0.3219,0.3218,0.3217,0.3297,0.33,0.3303,0,0,0,0,0,0,0,0,0,0,0,0,0,0.2754,0.2756,0.2891,0.2892,0.2894,0.3101,0.3105,0.3109,0.3221,0.3219,0.3218,0.3217,0.3296,0.33,0.3304,0,0,0,0,0,0,0,0,0,0,0,0,0,0.2886,0.2756,0.2891,0.2964,0.2972,0.31,0.3105,0.311,0.3221,0.3219,0.3218,0.3216,0.3295,0.33,0.3304,0.3363,0,0,0.3318,0.332,0,0,0,0,0,0,0,0,0.2878,0.2893,0.2952,0.2959,0.2968,0.3121,0.3085,0.3184,0.3221,0.3141,0.3217,0.3216,0.3218,0.3229,0.3294,0.3367,0.337,0.3319,0.3321,0.3323,0.3325,0,0,0,0,0,0,0,0.2869,0.2885,0.2988,0.2953,0.2963,0.3043,0.3061,0.3107,0.3194,0.3148,0.3153,0.3155,0.3224,0.3289,0.3295,0.3371,0.3318,0.3322,0.3325,0.3327,0.3452,0.3453,0,0,0,0,0,0,0.2809,0.2876,0.2981,0.2993,0.2903,0.3045,0.3065,0.3085,0.3196,0.3209,0.3156,0.316,0.3282,0.329,0.3298,0.3374,0.3323,0.3328,0.333,0.3451,0.3452,0.3453,0,0,0,0,0,0,0.2806,0.2817,0.2972,0.2927,0.2951,0.3047,0.3069,0.3089,0.3167,0.3202,0.3214,0.3211,0.3281,0.3292,0.3325,0.3376,0.333,0.3334,0.3451,0.3452,0.3452,0.3523,0,0,0,0,0,0,0.2801,0.2815,0.2839,0.2923,0.295,0.3039,0.307,0.3094,0.3163,0.317,0.3253,0.3259,0.3281,0.3318,0.3329,0.3382,0.3337,0.345,0.3451,0.3452,0.352,0.3526,0.3531,0,0,0,0,0,0.2796,0.2793,0.284,0.2853,0.297,0.3039,0.3063,0.3135,0.3166,0.3202,0.3241,0.3257,0.3332,0.3322,0.3335,0.3391,0.345,0.3451,0.3452,0.3517,0.3525,0.3531,0,0,0,0,0,0,0.2744,0.2807,0.2858,0.2879,0.2957,0.3052,0.3083,0.3147,0.3222,0.323,0.3269,0.3277,0.3352,0.3337,0.3325,0.3423,0.3393,0.3397,0.3438,0.3445,0.3451,0.3391,0.3341,0,0,0,0,0,0.2744,0.2759,0.2848,0.2868,0.2902,0.301,0.3057,0.3118,0.3176,0.3214,0.329,0.3332,0.3372,0.3374,0.3437,0.3467,0.3415,0.3506,0.3512,0.3517,0.3473,0.3454,0.3454,0.3457,0.3457,0.3457,0,0,0.2734,0.2762,0.278,0.2859,0.2927,0.2981,0.3038,0.3106,0.3155,0.3204,0.3312,0.3389,0.3394,0.346,0.3485,0.3442,0.3486,0.3518,0.3523,0.3475,0.3455,0.3455,0.3454,0.3458,0.3458,0.3457,0,0,0.2672,0.2746,0.2735,0.2806,0.2892,0.2969,0.2987,0.3128,0.3191,0.3289,0.3345,0.341,0.3505,0.3513,0.3514,0.3567,0.3553,0.3622,0.3569,0.3554,0.3552,0.3551,0.3475,0.3466,0.3583,0.3583,0.3583,0,0.2672,0.2661,0.2747,0.2764,0.2804,0.2954,0.2973,0.3072,0.3219,0.3242,0.3312,0.3478,0.3509,0.3521,0.355,0.3581,0.3557,0.3552,0.356,0.3558,0.3555,0.3477,0.3466,0.3586,0.3586,0.3586,0.3585,0,0.2584,0.2625,0.2622,0.2696,0.2765,0.2808,0.2937,0.3046,0.316,0.3241,0.3357,0.3458,0.3526,0.3576,0.3575,0.3592,0.3577,0.361,0.3543,0.3559,0.3476,0.3463,0.3591,0.359,0.3589,0.3588,0,0,0.249,0.2547,0.2553,0.2593,0.2734,0.2783,0.2867,0.2953,0.2998,0.3195,0.3231,0.3364,0.3473,0.3478,0.3555,0.3529,0.3507,0.3557,0.3555,0.3477,0.3441,0.3395,0.3376,0.3571,0.357,0.3569,0.3387,0,0.2411,0.2381,0.2441,0.2497,0.2531,0.2686,0.2758,0.2871,0.2982,0.3083,0.3189,0.3287,0.3418,0.3485,0.3501,0.3549,0.348,0.3549,0.3435,0.3429,0.3387,0.3363,0.3145,0.2963,0.3374,0.3372,0.337,0,0.2339,0.2318,0.2299,0.2418,0.2445,0.2518,0.2643,0.2738,0.2873,0.2959,0.3083,0.3188,0.3264,0.3355,0.3404,0.3465,0.3427,0.3425,0.3419,0.3331,0.3361,0.3015,0.2924,0.3349,0.335,0.3352,0.3353,0,0.2221,0.2269,0.2229,0.2269,0.2398,0.2439,0.2554,0.2698,0.2759,0.2894,0.2935,0.3079,0.3179,0.3207,0.3295,0.3339,0.3288,0.3336,0.322,0.3214,0.2971,0.2948,0.324,0.324,0.324,0.3241,0.3241,0,0.2116,0.2116,0.219,0.2174,0.2214,0.2372,0.2447,0.2568,0.2701,0.2759,0.2902,0.2974,0.3154,0.3184,0.322,0.3216,0.3238,0.317,0.3163,0.299,0.2972,0.3269,0.3275,0.3234,0.3235,0.3237,0.3238,0,0.1986,0.2013,0.2029,0.2118,0.2166,0.2225,0.2409,0.2455,0.261,0.2685,0.2719,0.2885,0.2987,0.3075,0.3106,0.3113,0.3087,0.3031,0.2801,0.2772,0.3016,0.3028,0.2862,0.2858,0.2856,0.2854,0.2852,0,0.1861,0.1865,0.1971,0.1991,0.2028,0.2145,0.2221,0.2412,0.2464,0.2643,0.2647,0.2753,0.2849,0.2893,0.2878,0.2841,0.2985,0.2596,0.2629,0.2966,0.2976,0.2992,0.3007,0.2311,0.2305,0.23,0.2296,0,0.1676,0.1771,0.1769,0.1832,0.1901,0.1977,0.2109,0.2127,0.2347,0.241,0.2518,0.2587,0.2651,0.2599,0.2568,0.2527,0.2616,0.2493,0.2871,0.2484,0.2445,0.2457,0.2489,0.2251,0.2256,0.2259,0.2262,0.2263,0.1563,0.1567,0.1633,0.1691,0.1754,0.181,0.1855,0.1962,0.2049,0.214,0.228,0.2334,0.2353,0.2239,0.2179,0.2143,0.2299,0.223,0.2245,0.2266,0.2278,0.2241,0.2006,0.2009,0.2011,0.2013,0.2015,0,0.1408,0.1468,0.1495,0.1561,0.1577,0.1686,0.1762,0.1788,0.185,0.195,0.2021,0.1816,0.18,0.1895,0.1744,0.1708,0.1682,0.1698,0.1671,0.1714,0.1753,0.1742,0.1325,0.1324,0.1322,0.1321,0,0,0.133,0.1331,0.1373,0.1379,0.1441,0.1468,0.1504,0.1533,0.1601,0.1571,0.1591,0.1669,0.1803,0.1512,0.1466,0.1419,0.1566,0.1363,0.1909,0.1921,0.1959,0.2041,0.2069,0,0,0,0,0]},{"header":{"parameterUnit":"m.s-1","parameterCategory":2,"la1":30.2991,"la2":30.254,"lo1":-89.0895,"lo2":-89.0444,"dy":0.0017,"dx":0.0017,"nx":28,"ny":28,"refTime":"2023-07-19T21:00:00:Z","depth":"2","parameterNumber":3,"parameterNumberName":"V-component_of_CURRENTS"},"data":[0,0,0,0,0,0,0,0,0,0,0,0,0,0,0,0,0,0,0,0,0,0,0,0,0,0,0,0,0,0,0,0,0,0,0,0,0,0,0,0,0,0,0,0,0,0,0,0,0,0,0,0,0,0,0,0,0,0,-0.073,-0.0729,0,-0.0525,-0.0521,-0.0518,-0.0407,-0.0408,-0.0409,-0.041,-0.0465,-0.0465,-0.0466,0,0,0,0,0,0,0,0,0,0,0,0,0,-0.0708,-0.071,-0.073,-0.0728,-0.0727,-0.0525,-0.0521,-0.0517,-0.0407,-0.0408,-0.0409,-0.0411,-0.0465,-0.0465,-0.0466,0,0,0,0,0,0,0,0,0,0,0,0,0,-0.0619,-0.071,-0.073,-0.0659,-0.0651,-0.0526,-0.0521,-0.0516,-0.0406,-0.0408,-0.041,-0.0411,-0.0464,-0.0465,-0.0466,-0.0437,0,0,-0.0468,-0.0468,0,0,0,0,0,0,0,0,-0.0624,-0.0618,-0.067,-0.0663,-0.0655,-0.0506,-0.0534,-0.0507,-0.0406,-0.0484,-0.041,-0.0412,-0.0511,-0.0508,-0.0441,-0.044,-0.0442,-0.0468,-0.0468,-0.0469,-0.0469,0,0,0,0,0,0,0,-0.0631,-0.0624,-0.0634,-0.0669,-0.066,-0.0529,-0.0519,-0.0524,-0.0485,-0.0477,-0.0473,-0.0472,-0.0507,-0.044,-0.0443,-0.0443,-0.0468,-0.0468,-0.0469,-0.0469,-0.0444,-0.0443,0,0,0,0,0,0,-0.0701,-0.0632,-0.0641,-0.0629,-0.066,-0.053,-0.0519,-0.054,-0.0479,-0.0473,-0.0471,-0.0468,-0.0438,-0.0442,-0.0445,-0.0379,-0.0469,-0.0469,-0.047,-0.0445,-0.0444,-0.0443,0,0,0,0,0,0,-0.0701,-0.0704,-0.0649,-0.0635,-0.0621,-0.0533,-0.0555,-0.0536,-0.0439,-0.0474,-0.047,-0.0395,-0.044,-0.0444,-0.0454,-0.0384,-0.0469,-0.047,-0.0447,-0.0445,-0.0443,-0.027,0,0,0,0,0,0,-0.0702,-0.0706,-0.068,-0.0642,-0.0626,-0.0562,-0.0554,-0.0531,-0.0446,-0.0438,-0.0408,-0.0415,-0.0441,-0.0453,-0.0454,-0.0386,-0.0471,-0.0448,-0.0446,-0.0444,-0.0277,-0.0263,-0.025,0,0,0,0,0,-0.0702,-0.0695,-0.0681,-0.0678,-0.0616,-0.0562,-0.0537,-0.0468,-0.0441,-0.0386,-0.0394,-0.0414,-0.0441,-0.0452,-0.0455,-0.0385,-0.0449,-0.0446,-0.0444,-0.0283,-0.0266,-0.0251,0,0,0,0,0,0,-0.0646,-0.0683,-0.0667,-0.0662,-0.0608,-0.0549,-0.0489,-0.0441,-0.0383,-0.0396,-0.0404,-0.0411,-0.0385,-0.0426,-0.0437,-0.0378,-0.0446,-0.0444,-0.0323,-0.0307,-0.0294,-0.0375,-0.0471,0,0,0,0,0,-0.0634,-0.0656,-0.0638,-0.0623,-0.0605,-0.0529,-0.0477,-0.0452,-0.0428,-0.0395,-0.0326,-0.0334,-0.0374,-0.0377,-0.0385,-0.0357,-0.0464,-0.0318,-0.0304,-0.0292,-0.0364,-0.0461,-0.0463,-0.0435,-0.0435,-0.0435,0,0,-0.0606,-0.0631,-0.0633,-0.0613,-0.0565,-0.0519,-0.0497,-0.0449,-0.0405,-0.0424,-0.0279,-0.0271,-0.0359,-0.0321,-0.0313,-0.0347,-0.0344,-0.0289,-0.0278,-0.0359,-0.0459,-0.0462,-0.0465,-0.0433,-0.0434,-0.0434,0,0,-0.0596,-0.0587,-0.0602,-0.0549,-0.0517,-0.0488,-0.0472,-0.0361,-0.0307,-0.0226,-0.0235,-0.0209,-0.0164,-0.0207,-0.0255,-0.0188,-0.0267,-0.0146,-0.014,-0.0228,-0.0233,-0.0238,-0.0323,-0.0338,-0.0141,-0.014,-0.014,0,-0.0523,-0.0576,-0.0576,-0.055,-0.0502,-0.0476,-0.0434,-0.0385,-0.0262,-0.0265,-0.0185,-0.0108,-0.0141,-0.0194,-0.0172,-0.0158,-0.0226,-0.018,-0.0212,-0.022,-0.0229,-0.0316,-0.0334,-0.0132,-0.0133,-0.0134,-0.0134,0,-0.0557,-0.0525,-0.052,-0.0502,-0.0437,-0.0407,-0.0368,-0.0272,-0.0196,-0.0183,-0.0117,-0.0069,-0.0042,-0.0016,-0.0095,-0.0135,-0.0166,-0.0174,-0.0251,-0.0221,-0.0314,-0.0336,-0.0119,-0.0122,-0.0125,-0.0127,0,0,-0.0528,-0.0545,-0.0519,-0.048,-0.0414,-0.037,-0.032,-0.0313,-0.0297,-0.0146,-0.0101,-0.0097,-0.0023,-0.0075,-0.0042,-0.0132,-0.0214,-0.0179,-0.0187,-0.0263,-0.0411,-0.0315,-0.0331,-0.021,-0.0214,-0.0218,-0.0432,0,-0.0518,-0.051,-0.0507,-0.0409,-0.0374,-0.0315,-0.0236,-0.0229,-0.0215,-0.0145,-0.0168,-0.0118,-0.0063,0.0011,-0.0054,-0.0146,-0.0276,-0.0158,-0.0437,-0.0447,-0.0363,-0.0355,-0.0286,-0.0462,-0.0455,-0.0459,-0.0462,0,-0.0506,-0.0517,-0.0467,-0.0362,-0.0332,-0.0252,-0.017,-0.0086,-0.0118,-0.0095,-0.0067,-0.0093,-0.0105,-0.008,-0.0217,-0.0125,-0.0306,-0.0415,-0.0424,-0.0439,-0.0394,-0.0504,-0.0505,-0.0501,-0.0498,-0.0495,-0.0492,0,-0.0495,-0.0436,-0.0417,-0.0372,-0.0276,-0.0209,-0.0105,-0.008,-0.0034,-0.005,-0.0045,-0.0065,0.0009,-0.0167,-0.03,-0.0286,-0.053,-0.0526,-0.0646,-0.064,-0.0702,-0.0693,-0.0811,-0.0811,-0.0811,-0.081,-0.0809,0,-0.0471,-0.0417,-0.0399,-0.0365,-0.0249,-0.0142,-0.0028,0.005,0.0103,0.0142,0.0055,0.0099,-0.003,-0.0162,-0.0337,-0.0476,-0.0528,-0.0689,-0.07,-0.0628,-0.061,-0.0755,-0.0746,-0.0818,-0.0816,-0.0815,-0.0813,0,-0.0422,-0.0436,-0.0366,-0.0289,-0.0232,-0.0098,0.0085,0.0147,0.0215,0.0285,0.0285,0.0196,0.0106,-0.0093,-0.0382,-0.0468,-0.0683,-0.0802,-0.0686,-0.0679,-0.075,-0.0729,-0.0933,-0.0931,-0.093,-0.0929,-0.0928,0,-0.0423,-0.0391,-0.029,-0.0223,-0.0171,0.0,0.0131,0.0243,0.0305,0.0371,0.0409,0.0269,0.0225,-0.0078,-0.0316,-0.0606,-0.0714,-0.0778,-0.0762,-0.0778,-0.0769,-0.075,-0.0731,-0.0778,-0.0776,-0.0774,-0.0773,0,-0.0374,-0.0319,-0.0271,-0.0146,-0.0019,0.0114,0.0298,0.0346,0.0504,0.0532,0.0598,0.0533,0.028,0.0068,-0.0315,-0.0504,-0.0674,-0.0751,-0.0845,-0.0707,-0.0635,-0.0623,-0.0611,-0.0759,-0.076,-0.0761,-0.0762,-0.0762,-0.0295,-0.0238,-0.0158,-0.0024,0.0107,0.0265,0.0398,0.0521,0.0666,0.0773,0.0717,0.0682,0.0375,-0.0049,-0.0306,-0.0556,-0.0613,-0.0733,-0.0738,-0.0746,-0.0639,-0.0563,-0.0656,-0.0657,-0.0657,-0.0658,-0.0659,0,-0.0213,-0.0144,-0.0034,0.0126,0.0275,0.0329,0.0529,0.0655,0.084,0.0888,0.0923,0.0618,0.0367,0.0059,-0.028,-0.0525,-0.0558,-0.0592,-0.06,-0.0613,-0.0625,-0.0512,-0.0497,-0.0497,-0.0496,-0.0496,0,0,-0.0155,-0.005,-0.0004,0.0249,0.0373,0.0584,0.0706,0.0881,0.0976,0.099,0.095,0.081,0.0449,0.0205,-0.012,-0.0271,-0.0371,-0.0296,-0.0404,-0.0385,-0.0392,-0.0691,-0.0528,0,0,0,0,0]}],[{"header":{"parameterUnit":"m.s-1","parameterCategory":2,"la1":30.2991,"la2":30.254,"lo1":-89.0895,"lo2":-89.0444,"dy":0.0017,"dx":0.0017,"nx":28,"ny":28,"refTime":"2023-07-19T21:00:00:Z","depth":"4","parameterNumber":2,"parameterNumberName":"U-component_of_CURRENTS"},"data":[0,0,0,0,0,0,0,0,0,0,0,0,0,0,0,0,0,0,0,0,0,0,0,0,0,0,0,0,0,0,0,0,0,0,0,0,0,0,0,0,0,0,0,0,0,0,0,0,0,0,0,0,0,0,0,0,0,0,0.0602,0.0603,0,0.0654,0.0654,0.0654,0.0686,0.0687,0.0688,0.0688,0.0716,0.0716,0.0716,0,0,0,0,0,0,0,0,0,0,0,0,0,0.0576,0.0576,0.0602,0.0603,0.0604,0.0654,0.0654,0.0655,0.0686,0.0687,0.0688,0.0689,0.0716,0.0716,0.0716,0,0,0,0,0,0,0,0,0,0,0,0,0,0.0598,0.0575,0.0602,0.0631,0.0634,0.0654,0.0654,0.0655,0.0686,0.0687,0.0688,0.0689,0.0716,0.0716,0.0716,0.0695,0,0,0.0716,0.0716,0,0,0,0,0,0,0,0,0.0596,0.0598,0.0625,0.0629,0.0633,0.067,0.0656,0.0669,0.0685,0.066,0.0688,0.0689,0.0702,0.0703,0.0702,0.0696,0.0697,0.0716,0.0716,0.0716,0.0716,0,0,0,0,0,0,0,0.0595,0.0596,0.0616,0.0627,0.0631,0.0658,0.0661,0.0658,0.0668,0.0662,0.0666,0.0681,0.0703,0.0702,0.0703,0.0698,0.0716,0.0716,0.0716,0.0717,0.0762,0.0763,0,0,0,0,0,0,0.0597,0.0594,0.0615,0.0619,0.0624,0.0658,0.0661,0.0652,0.0669,0.0675,0.068,0.0683,0.0701,0.0703,0.0704,0.0756,0.0716,0.0717,0.0717,0.0761,0.0762,0.0764,0,0,0,0,0,0,0.0596,0.0597,0.0613,0.0614,0.0619,0.0657,0.0647,0.0653,0.0683,0.0685,0.0689,0.0709,0.0702,0.0704,0.0727,0.0755,0.0717,0.0717,0.076,0.0761,0.0763,0.0812,0,0,0,0,0,0,0.0594,0.0596,0.06,0.0613,0.0619,0.0639,0.0647,0.0653,0.0692,0.0696,0.071,0.0712,0.0703,0.0727,0.0727,0.0754,0.0717,0.0758,0.076,0.0762,0.0809,0.0815,0.0821,0,0,0,0,0,0.0593,0.0593,0.0598,0.0603,0.0619,0.0641,0.0645,0.0673,0.0692,0.0704,0.0719,0.0713,0.0741,0.0727,0.0727,0.0756,0.0757,0.076,0.0762,0.0806,0.0814,0.082,0,0,0,0,0,0,0.0577,0.0597,0.0604,0.0607,0.0631,0.0649,0.0671,0.0689,0.071,0.0724,0.0722,0.0724,0.0753,0.0748,0.0734,0.0776,0.075,0.0753,0.0784,0.0791,0.0797,0.0815,0.0717,0,0,0,0,0,0.0576,0.059,0.0605,0.0615,0.0627,0.0653,0.0672,0.0692,0.0712,0.0724,0.0734,0.0748,0.0757,0.0771,0.0771,0.0794,0.0785,0.0815,0.082,0.0825,0.0841,0.0844,0.0852,0.0772,0.0772,0.0772,0,0,0.058,0.0592,0.0602,0.0616,0.0636,0.0658,0.0666,0.0704,0.0732,0.0722,0.0762,0.0765,0.0766,0.079,0.0804,0.0796,0.0842,0.0829,0.0833,0.0846,0.0848,0.0855,0.0862,0.0774,0.0774,0.0773,0,0,0.0591,0.0597,0.0612,0.0635,0.0675,0.0684,0.0702,0.0732,0.0755,0.0794,0.0791,0.0809,0.0835,0.0831,0.0836,0.0874,0.0867,0.0888,0.094,0.0943,0.095,0.0955,0.0947,0.0952,0.0899,0.0899,0.0899,0,0.0592,0.0607,0.0622,0.0646,0.0673,0.0699,0.0724,0.0747,0.0786,0.0809,0.0819,0.086,0.0852,0.0878,0.0899,0.0886,0.0893,0.0912,0.0951,0.0956,0.0961,0.0951,0.0956,0.0901,0.0901,0.0901,0.0901,0,0.0614,0.0637,0.0652,0.0684,0.0708,0.074,0.0771,0.0804,0.0842,0.0867,0.0916,0.0912,0.0939,0.0941,0.0939,0.0975,0.0969,0.095,0.0931,0.0972,0.0959,0.0963,0.0905,0.0904,0.0904,0.0903,0,0,0.0577,0.0651,0.0656,0.0685,0.0735,0.0753,0.0803,0.0845,0.0885,0.0933,0.0977,0.1003,0.1017,0.1023,0.1016,0.1031,0.1059,0.1026,0.1025,0.1016,0.1077,0.1043,0.1044,0.106,0.1061,0.1062,0.1051,0,0.0587,0.0637,0.0671,0.0723,0.0747,0.0795,0.0838,0.0888,0.0929,0.0974,0.1002,0.1044,0.1044,0.1069,0.1082,0.1059,0.1075,0.1065,0.1041,0.104,0.1004,0.1049,0.1066,0.1053,0.1054,0.1055,0.1055,0,0.0583,0.0621,0.0674,0.0747,0.0763,0.0805,0.0872,0.0919,0.0988,0.1028,0.1081,0.1103,0.1136,0.1128,0.1135,0.1139,0.1126,0.111,0.1109,0.1067,0.1015,0.1006,0.1061,0.1061,0.106,0.106,0.1059,0,0.0532,0.0614,0.0659,0.0688,0.0775,0.082,0.087,0.0944,0.0988,0.1073,0.1115,0.1153,0.1185,0.1181,0.1171,0.1164,0.1169,0.1134,0.1092,0.1088,0.1097,0.1091,0.1149,0.1149,0.115,0.115,0.115,0,0.0511,0.0545,0.0654,0.0676,0.0741,0.0817,0.0887,0.0943,0.1027,0.1072,0.1149,0.1176,0.1212,0.1219,0.1189,0.1158,0.1181,0.1116,0.1092,0.1116,0.1113,0.1098,0.1092,0.1149,0.1149,0.1149,0.1149,0,0.0447,0.0517,0.0571,0.068,0.0718,0.0772,0.0892,0.0936,0.1039,0.1095,0.1134,0.121,0.123,0.1241,0.1225,0.1184,0.1147,0.1131,0.1167,0.1142,0.1054,0.1051,0.107,0.1069,0.1068,0.1067,0.1066,0,0.0417,0.0444,0.0555,0.0602,0.0661,0.0757,0.0813,0.0926,0.0964,0.1091,0.1095,0.1181,0.1214,0.1164,0.118,0.1142,0.1131,0.1114,0.1087,0.1076,0.1051,0.1049,0.1047,0.1065,0.1065,0.1064,0.1064,0,0.0355,0.0406,0.0453,0.0544,0.0617,0.0688,0.0776,0.08,0.0922,0.1014,0.1055,0.1093,0.1119,0.1118,0.113,0.1088,0.1122,0.1104,0.1105,0.108,0.1071,0.1046,0.1045,0.1061,0.1062,0.1062,0.1062,0,0.0306,0.0327,0.0399,0.0484,0.0563,0.0611,0.0667,0.0732,0.0791,0.0932,0.093,0.1016,0.109,0.1089,0.107,0.1067,0.1041,0.1003,0.1008,0.1012,0.1004,0.0985,0.0942,0,0,0,0,0,0.0267,0.0287,0.034,0.0421,0.0498,0.0549,0.0635,0.0693,0.0798,0.0803,0.0876,0.0898,0.0942,0.0975,0.0957,0.1028,0.103,0.1003,0.0985,0.1044,0.1047,0.1046,0,0,0,0,0,0,0.024,0.0274,0.0305,0.0357,0.0409,0.0475,0.0531,0.0603,0.0615,0.073,0.0746,0.085,0.0883,0.0938,0.0939,0.0951,0.0924,0.1059,0.1057,0.1042,0.1045,0.1048,0.1047,0,0,0,0,0]},{"header":{"parameterUnit":"m.s-1","parameterCategory":2,"la1":30.2991,"la2":30.254,"lo1":-89.0895,"lo2":-89.0444,"dy":0.0017,"dx":0.0017,"nx":28,"ny":28,"refTime":"2023-07-19T21:00:00:Z","depth":"4","parameterNumber":3,"parameterNumberName":"V-component_of_CURRENTS"},"data":[0,0,0,0,0,0,0,0,0,0,0,0,0,0,0,0,0,0,0,0,0,0,0,0,0,0,0,0,0,0,0,0,0,0,0,0,0,0,0,0,0,0,0,0,0,0,0,0,0,0,0,0,0,0,0,0,0,0,-0.0313,-0.0313,0,-0.0354,-0.0355,-0.0355,-0.0374,-0.0374,-0.0374,-0.0374,-0.0465,-0.0467,-0.0469,0,0,0,0,0,0,0,0,0,0,0,0,0,-0.0265,-0.0265,-0.0313,-0.0313,-0.0314,-0.0354,-0.0355,-0.0355,-0.0374,-0.0374,-0.0374,-0.0374,-0.0464,-0.0466,-0.0469,0,0,0,0,0,0,0,0,0,0,0,0,0,-0.0292,-0.0266,-0.0313,-0.033,-0.0332,-0.0354,-0.0355,-0.0355,-0.0374,-0.0374,-0.0374,-0.0374,-0.0463,-0.0466,-0.047,-0.0485,0,0,-0.048,-0.0481,0,0,0,0,0,0,0,0,-0.029,-0.0293,-0.0327,-0.0329,-0.0332,-0.0361,-0.0371,-0.0402,-0.0374,-0.0355,-0.0374,-0.0375,-0.0436,-0.0442,-0.0445,-0.0489,-0.0493,-0.048,-0.0482,-0.0484,-0.0485,0,0,0,0,0,0,0,-0.0288,-0.0292,-0.0327,-0.0328,-0.0331,-0.0342,-0.0345,-0.0377,-0.0393,-0.0357,-0.0359,-0.0368,-0.0437,-0.0441,-0.0447,-0.0494,-0.048,-0.0483,-0.0485,-0.0486,-0.0564,-0.0564,0,0,0,0,0,0,-0.0287,-0.029,-0.0325,-0.0328,-0.0314,-0.0342,-0.0346,-0.0349,-0.0391,-0.0398,-0.0367,-0.0368,-0.0435,-0.0443,-0.045,-0.0481,-0.0484,-0.0487,-0.0489,-0.0564,-0.0564,-0.0564,0,0,0,0,0,0,-0.0286,-0.029,-0.0324,-0.0312,-0.0318,-0.0343,-0.0346,-0.035,-0.0369,-0.0399,-0.0406,-0.0384,-0.0436,-0.0446,-0.0481,-0.0484,-0.0488,-0.0491,-0.0564,-0.0564,-0.0564,-0.0536,0,0,0,0,0,0,-0.0284,-0.0289,-0.0298,-0.0312,-0.0318,-0.0334,-0.0346,-0.0351,-0.0374,-0.0376,-0.0416,-0.0423,-0.0437,-0.0476,-0.0485,-0.0489,-0.0494,-0.0564,-0.0564,-0.0564,-0.0537,-0.0535,-0.0533,0,0,0,0,0,-0.0282,-0.0275,-0.0297,-0.0303,-0.0327,-0.0334,-0.0338,-0.0355,-0.0375,-0.0375,-0.0405,-0.0423,-0.0483,-0.0479,-0.0489,-0.0494,-0.0564,-0.0564,-0.0564,-0.0537,-0.0535,-0.0534,0,0,0,0,0,0,-0.0261,-0.0278,-0.0302,-0.0303,-0.0324,-0.0338,-0.0341,-0.0364,-0.0388,-0.04,-0.0429,-0.0438,-0.0478,-0.0487,-0.0483,-0.0516,-0.0524,-0.0526,-0.0501,-0.0499,-0.0497,-0.0466,-0.0497,0,0,0,0,0,-0.0263,-0.0257,-0.0288,-0.0289,-0.0301,-0.033,-0.0341,-0.0359,-0.038,-0.0392,-0.0418,-0.0449,-0.0483,-0.0492,-0.0526,-0.054,-0.0548,-0.0548,-0.0546,-0.0545,-0.0525,-0.0554,-0.0553,-0.0565,-0.0564,-0.0564,0,0,-0.0259,-0.0264,-0.0266,-0.0284,-0.0301,-0.0302,-0.0335,-0.0352,-0.0351,-0.04,-0.0409,-0.0459,-0.0492,-0.0512,-0.0528,-0.0518,-0.0545,-0.0545,-0.0543,-0.0524,-0.0554,-0.0553,-0.0552,-0.0565,-0.0565,-0.0565,0,0,-0.0225,-0.0251,-0.0236,-0.0249,-0.0277,-0.0291,-0.03,-0.033,-0.0344,-0.0368,-0.0409,-0.0451,-0.0489,-0.0506,-0.0522,-0.053,-0.0552,-0.0549,-0.0497,-0.0526,-0.0525,-0.0524,-0.0527,-0.0527,-0.0528,-0.0528,-0.0528,0,-0.0222,-0.0209,-0.0234,-0.0223,-0.023,-0.0284,-0.0277,-0.0292,-0.0329,-0.0342,-0.0365,-0.0441,-0.0479,-0.05,-0.0499,-0.0526,-0.0539,-0.0503,-0.0523,-0.0522,-0.0522,-0.0526,-0.0526,-0.0526,-0.0526,-0.0527,-0.0527,0,-0.0179,-0.0176,-0.0166,-0.0166,-0.0177,-0.018,-0.0212,-0.0229,-0.0265,-0.0288,-0.0337,-0.0391,-0.0427,-0.0454,-0.0478,-0.0496,-0.0505,-0.0535,-0.0525,-0.0519,-0.0523,-0.0524,-0.0524,-0.0525,-0.0525,-0.0526,0,0,-0.0154,-0.0138,-0.0138,-0.0133,-0.0153,-0.0156,-0.0156,-0.0175,-0.0183,-0.0232,-0.024,-0.0308,-0.0354,-0.0374,-0.0424,-0.0441,-0.0458,-0.0476,-0.0478,-0.0472,-0.0505,-0.0497,-0.0497,-0.0499,-0.0499,-0.0499,-0.0506,0,-0.012,-0.0075,-0.0081,-0.0058,-0.005,-0.0088,-0.0081,-0.0108,-0.0143,-0.0163,-0.0228,-0.027,-0.0317,-0.0352,-0.0374,-0.0456,-0.046,-0.0452,-0.0516,-0.0517,-0.0507,-0.0497,-0.05,-0.0507,-0.0507,-0.0507,-0.0507,0,-0.0088,-0.0059,-0.0022,-0.001,-0.0012,-0.0006,-0.0021,-0.0025,-0.0065,-0.0095,-0.0139,-0.02,-0.0244,-0.0291,-0.0374,-0.0371,-0.0421,-0.0472,-0.0474,-0.0472,-0.051,-0.0517,-0.0508,-0.0508,-0.0508,-0.0508,-0.0508,0,-0.0057,-0.0026,0.001,0.0013,0.0021,0.0023,0.0019,-0.0011,-0.0015,-0.006,-0.0076,-0.0142,-0.0186,-0.0257,-0.0359,-0.0373,-0.0446,-0.0481,-0.0508,-0.0507,-0.0525,-0.0526,-0.0517,-0.0517,-0.0517,-0.0517,-0.0517,0,-0.002,0.0002,0.0024,0.0043,0.0067,0.0053,0.0063,0.0047,0.0026,0.0023,-0.0044,-0.0065,-0.0184,-0.0247,-0.0331,-0.0414,-0.0423,-0.0485,-0.0508,-0.0512,-0.0512,-0.0525,-0.0526,-0.0517,-0.0517,-0.0517,-0.0517,0,0.0,0.002,0.0054,0.0077,0.0084,0.0092,0.01,0.0102,0.0078,0.0074,0.006,-0.001,-0.0101,-0.0203,-0.0326,-0.0377,-0.0464,-0.0487,-0.0458,-0.0482,-0.0506,-0.0505,-0.0509,-0.0508,-0.0508,-0.0508,-0.0508,0,0.0022,0.0041,0.0081,0.0096,0.0105,0.012,0.0132,0.0125,0.0131,0.0105,0.0106,0.0026,-0.0034,-0.0179,-0.0295,-0.0428,-0.0455,-0.0479,-0.0508,-0.0482,-0.0505,-0.0505,-0.0504,-0.0508,-0.0508,-0.0507,-0.0507,0,0.0047,0.0052,0.0084,0.0123,0.0141,0.0162,0.018,0.0196,0.0184,0.0175,0.0137,0.0052,-0.0038,-0.017,-0.0271,-0.0372,-0.0457,-0.0477,-0.0479,-0.0506,-0.0481,-0.0504,-0.0504,-0.0507,-0.0507,-0.0507,-0.0507,0,0.0061,0.0073,0.011,0.0136,0.0163,0.0182,0.0198,0.0203,0.0209,0.0188,0.0177,0.0068,0.0004,-0.014,-0.0236,-0.0332,-0.0363,-0.039,-0.0396,-0.0398,-0.0375,-0.0328,-0.0312,0,0,0,0,0,0.007,0.0081,0.0117,0.0146,0.0171,0.0178,0.0217,0.0228,0.0237,0.0217,0.0197,0.0108,-0.0042,-0.0109,-0.0205,-0.024,-0.0382,-0.0353,-0.0415,-0.0503,-0.0504,-0.0496,0,0,0,0,0,0,0.008,0.0106,0.012,0.0144,0.0152,0.0177,0.0194,0.0205,0.0197,0.0194,0.0113,0.0082,-0.0068,-0.0003,-0.0215,-0.0243,-0.0292,-0.0424,-0.0425,-0.0502,-0.0503,-0.0504,-0.0496,0,0,0,0,0]}]]